FW6418 Weather Reports


time (UTC)temp
F
wind
direction
speed
knots
gust
knots
rain 1hr
in
rain 24hr
in
rain mn
in
humidity
%
barometer
mb
20260906110517 64 0.0 0.0 0.00 0.00 0.00 99 1016.2
20260906105533 63 0.0 0.9 0.00 0.00 0.00 99 1016.2
20260906103531 63 0.0 0.9 0.00 0.00 0.00 99 1015.9
20260906102528 63 0.0 0.0 0.00 0.00 0.00 99 1015.7
20260906101526 63 0.0 0.0 0.00 0.00 0.00 99 1015.6
20260906100523 63 0.0 0.0 0.00 0.00 0.00 99 1015.5
20260906095535 63 0.0 0.9 0.00 0.00 0.00 99 1015.5
20260906094517 63 0.0 0.0 0.00 0.00 0.00 98 1015.5
20260906093618 63 0.0 0.0 0.00 0.00 0.00 98 1015.5
20260906092536 63 0.0 0.0 0.00 0.00 0.00 98 1015.6
20260906091528 63 0.0 0.0 0.00 0.00 0.00 98 1015.6
20260906090544 63 7 0.0 0.9 0.00 0.00 0.00 99 1015.6
20260906085522 64 0.0 0.9 0.00 0.00 0.00 98 1015.4
20260906084550 64 27 0.0 0.9 0.00 0.00 0.00 98 1015.3
20260906083519 64 196 0.0 0.9 0.00 0.00 0.00 98 1015.2
20260906082531 64 81 0.0 0.9 0.00 0.00 0.00 96 1015.1
20260906081528 64 0.0 0.0 0.00 0.00 0.00 96 1015.0
20260906080523 65 0.0 0.9 0.00 0.00 0.00 96 1015.0
20260906075548 65 93 0.0 0.9 0.00 0.00 0.00 96 1014.9
20260906074522 65 59 0.0 0.9 0.00 0.00 0.00 95 1015.0
20260906073520 65 0.0 0.9 0.00 0.00 0.00 95 1015.2
20260906072517 65 0.0 0.9 0.00 0.00 0.00 94 1015.2
20260906071603 66 110 0.0 1.7 0.00 0.00 0.00 94 1015.2
20260906070530 66 0.0 0.0 0.00 0.00 0.00 93 1015.5
20260906065527 66 266 0.0 0.9 0.00 0.00 0.00 94 1015.3
20260906064525 66 133 0.0 1.7 0.00 0.00 0.00 94 1015.6
20260906063523 66 0.0 0.9 0.00 0.00 0.00 93 1015.7
20260906062534 66 105 0.9 1.7 0.00 0.00 0.00 92 1015.8
20260906061517 66 29 0.0 1.7 0.00 0.00 0.00 92 1015.9
20260906060534 66 153 0.0 1.7 0.00 0.00 0.00 90 1015.8
20260906055530 66 341 0.9 1.7 0.00 0.00 0.00 90 1015.7
20260906054528 66 169 0.9 2.6 0.00 0.00 0.00 90 1015.7
20260906053557 66 312 0.0 1.7 0.00 0.00 0.00 91 1015.7
20260906052524 66 0.0 0.9 0.00 0.00 0.00 91 1015.8
20260906051523 66 0.0 0.9 0.00 0.00 0.00 91 1015.9
20260906050522 66 236 0.0 0.9 0.00 0.00 0.00 90 1015.9
20260906045520 66 0.0 0.9 0.00 0.00 0.00 90 1016.0
20260906044519 67 0.0 0.0 0.00 0.00 0.00 89 1016.0
20260906042523 67 142 0.0 1.7 0.00 0.00 0.00 88 1016.0
20260906041518 67 0.0 0.9 0.00 0.00 0.00 88 1016.1
20260906040522 67 0.0 0.0 0.00 0.00 0.00 87 1015.8
20260906035519 68 0.0 0.0 0.00 0.00 0.00 86 1015.9
20260906034517 68 0.0 0.0 0.00 0.00 0.00 85 1016.1
20260906033534 68 0.0 0.0 0.00 0.00 0.00 84 1016.0
20260906032531 69 0.0 0.0 0.00 0.00 0.00 82 1016.2
20260906031528 69 53 0.0 1.7 0.00 0.00 0.00 80 1016.1
20260906030525 69 0.0 1.7 0.00 0.00 0.00 80 1016.3
20260906025523 69 155 0.9 1.7 0.00 0.00 0.00 80 1016.3
20260906024520 69 96 0.0 0.9 0.00 0.00 0.00 79 1016.3
20260906023519 70 0.0 0.0 0.00 0.00 0.00 78 1016.2
20260906022547 70 72 0.0 1.7 0.00 0.00 0.00 76 1016.2
20260906021534 70 0.0 0.9 0.00 0.00 0.00 77 1016.1
20260906020532 70 313 0.0 1.7 0.00 0.00 0.00 77 1016.2
20260906015529 71 199 0.0 0.9 0.00 0.00 0.00 77 1016.1
20260906014526 71 203 0.0 0.9 0.00 0.00 0.00 76 1016.1
20260906013525 71 0.0 0.9 0.00 0.00 0.00 74 1015.9
20260906012524 72 0.0 0.9 0.00 0.00 0.00 73 1015.9
20260906011557 72 357 0.0 0.9 0.00 0.00 0.00 72 1015.7
20260906010521 73 102 0.0 1.7 0.00 0.00 0.00 71 1015.6
20260906005519 73 95 0.0 1.7 0.00 0.00 0.00 70 1015.5
20260906004518 73 0.0 0.0 0.00 0.00 0.00 69 1015.5
20260906003531 73 265 0.0 0.9 0.00 0.00 0.00 69 1015.5
20260906001521 74 0.0 0.9 0.00 0.00 0.00 69 1015.2
20260906000516 75 0.0 0.0 0.00 0.00 0.00 67 1015.3
20260905235520 76 0.0 0.9 0.00 0.00 0.00 66 1015.1
20260905234547 76 0.0 0.0 0.00 0.00 0.00 65 1014.9
20260905233532 77 83 0.0 1.7 0.00 0.00 0.00 64 1014.8
20260905232530 78 106 0.0 3.5 0.00 0.00 0.00 63 1014.8
20260905231559 79 245 0.0 0.9 0.00 0.00 0.00 62 1014.9
20260905230527 80 0.0 0.9 0.00 0.00 0.00 60 1015.0
20260905225527 81 250 0.0 1.7 0.00 0.00 0.00 58 1015.0
20260905224524 82 0.0 0.9 0.00 0.00 0.00 58 1014.8
20260905223523 83 134 0.0 1.7 0.00 0.00 0.00 56 1015.0
20260905222521 84 167 0.9 2.6 0.00 0.00 0.00 54 1015.1
20260905221520 85 34 0.9 2.6 0.00 0.00 0.00 55 1014.8
20260905220518 86 247 0.0 0.9 0.00 0.00 0.00 54 1014.8
20260905215604 86 111 0.9 3.5 0.00 0.00 0.00 53 1014.8
20260905214532 86 174 0.9 3.5 0.00 0.00 0.00 54 1014.9
20260905213530 86 153 0.0 1.7 0.00 0.00 0.00 54 1014.9
20260905212529 87 164 1.7 3.5 0.00 0.00 0.00 53 1014.8
20260905211528 87 262 0.9 1.7 0.00 0.00 0.00 54 1014.7
20260905205554 90 129 0.9 2.6 0.00 0.00 0.00 50 1014.7
20260905204551 92 163 0.9 2.6 0.00 0.00 0.00 49 1014.7
20260905203549 96 222 0.9 2.6 0.00 0.00 0.00 47 1014.6
20260905202517 98 156 0.9 4.3 0.00 0.00 0.00 50 1014.5
20260905201602 98 301 0.9 2.6 0.00 0.00 0.00 52 1014.3
20260905200528 97 274 0.9 3.5 0.00 0.00 0.00 54 1014.3
20260905195519 97 18 0.9 4.3 0.00 0.00 0.00 56 1014.2
20260905194522 97 247 1.7 5.2 0.00 0.00 0.00 56 1014.0
20260905193519 98 310 0.9 2.6 0.00 0.00 0.00 58 1014.0
20260905192516 101 299 0.9 3.5 0.00 0.00 0.00 59 1014.0
20260905191532 100 280 0.9 3.5 0.00 0.00 0.00 61 1014.2
20260905190600 100 299 1.7 5.2 0.00 0.00 0.00 63 1014.5
20260905185556 98 305 0.9 3.5 0.00 0.00 0.00 63 1014.6
20260905184524 97 281 0.9 2.6 0.00 0.00 0.00 63 1014.7
20260905183522 92 233 0.9 2.6 0.00 0.00 0.00 70 1015.0
20260905182521 86 148 3.5 7.8 0.00 0.00 0.00 74 1015.3
20260905181519 82 126 3.5 7.8 0.00 0.00 0.00 76 1015.2
20260905180518 79 156 3.5 8.7 0.00 0.00 0.00 78 1015.3
20260905175516 78 152 4.3 9.6 0.00 0.00 0.00 78 1015.8
20260905174533 78 149 4.3 8.7 0.00 0.00 0.00 77 1016.2
20260905173532 78 148 3.5 8.7 0.00 0.00 0.00 76 1016.6
20260905172533 79 139 2.6 7.8 0.00 0.00 0.00 75 1016.9
20260905171528 80 148 2.6 7.0 0.00 0.00 0.00 74 1016.9
20260905170526 81 162 0.9 3.5 0.00 0.00 0.00 73 1017.2
20260905165524 83 160 1.7 4.3 0.00 0.00 0.00 72 1017.3
20260905164523 84 165 0.9 7.8 0.00 0.00 0.00 72 1017.5
20260905163521 86 134 1.7 5.2 0.00 0.00 0.00 70 1017.6
20260905162520 88 192 1.7 3.5 0.00 0.00 0.00 73 1017.3
20260905161518 90 333 0.9 1.7 0.00 0.00 0.00 73 1017.4
20260905160533 87 267 0.9 1.7 0.00 0.00 0.00 74 1017.6
20260905155525 89 42 0.9 2.6 0.00 0.00 0.00 71 1017.6
20260905154521 92 279 0.9 3.5 0.00 0.00 0.00 70 1017.2
20260905153522 94 274 2.6 7.0 0.00 0.00 0.00 68 1017.2
20260905152519 96 256 2.6 5.2 0.00 0.00 0.00 66 1017.2
20260905151534 96 271 2.6 4.3 0.00 0.00 0.00 66 1017.3
20260905150531 96 277 2.6 4.3 0.00 0.00 0.00 68 1017.0
20260905145529 95 286 2.6 3.5 0.00 0.00 0.00 69 1017.0
20260905144526 94 259 2.6 5.2 0.00 0.00 0.00 69 1017.0
20260905143523 94 277 1.7 5.2 0.00 0.00 0.00 69 1017.1
20260905142520 93 265 2.6 5.2 0.00 0.00 0.00 71 1017.1
20260905141518 89 276 1.7 3.5 0.00 0.00 0.00 74 1017.2
20260905140533 86 280 2.6 5.2 0.00 0.00 0.00 75 1017.1
20260905135530 83 270 1.7 4.3 0.00 0.00 0.00 76 1017.0
20260905134527 78 279 1.7 2.6 0.00 0.00 0.00 80 1017.1
20260905133524 75 263 1.7 3.5 0.00 0.00 0.00 83 1017.1
20260905132528 74 226 1.7 3.5 0.00 0.00 0.00 84 1017.0
20260905131521 73 231 0.9 3.5 0.00 0.00 0.00 84 1017.0
20260905130519 72 235 1.7 3.5 0.00 0.00 0.00 83 1017.1
20260905125518 72 216 2.6 7.8 0.00 0.00 0.00 83 1017.2
20260905124530 71 217 1.7 5.2 0.00 0.00 0.00 83 1017.1
20260905123526 70 224 1.7 4.3 0.00 0.00 0.00 84 1017.1
20260905122551 69 280 0.0 1.7 0.00 0.00 0.00 85 1017.1
20260905121516 68 110 0.9 2.6 0.00 0.00 0.00 85 1017.0
20260905120550 68 218 0.0 1.7 0.00 0.00 0.00 86 1017.0
20260905115517 67 231 0.9 3.5 0.00 0.00 0.00 88 1016.9
20260905114534 67 137 0.0 1.7 0.00 0.00 0.00 89 1017.0
20260905113531 66 315 0.0 0.9 0.00 0.00 0.00 90 1016.9
20260905112559 66 76 0.0 1.7 0.00 0.00 0.00 91 1016.9
20260905111557 66 69 0.0 0.9 0.00 0.00 0.00 91 1017.0